Regional Weather Roundup
Issued by NWS

Home | Current Version | Previous Version | Graphics & Text | Print | Product List | Glossary On
Versions: 1 2 3 4 5 6 7 8 9 10 11 12 13 14 15 16 17 18 19 20 21 22 23 24 25 26 27 28 29 30 31 32 33 34 35 36 37 38 39 40 41 42 43 44 45 46 47 48 49 50
011
ASUS43 KLOT 070608
RWRIL

ILLINOIS REGIONAL WEATHER ROUNDUP
NATIONAL WEATHER SERVICE CHICAGO/ROMEOVILLE IL
1200 AM CST SUN FEB 07 2016

NOTE: "FAIR" INDICATES FEW OR NO CLOUDS BELOW 12,000 FEET WITH NO
SIGNIFICANT WEATHER AND/OR OBSTRUCTIONS TO VISIBILITY.

* THESE STATIONS ARE NOT UNDER NWS QUALITY CONTROL. THEY ALSO MAY NOT
  REPORT WEATHER SUCH AS PRECIPITATION OR FOG.

ILZ001-002-007-009-015-016-024-070700-
NORTHWEST ILLINOIS

CITY           SKY/WX    TMP DP  RH WIND       PRES   REMARKS
MOLINE         MOCLDY    39  29  67 SW9       30.01F WCI  33
6HR MIN TEMP:  28; 6HR MAX TEMP:  39;

STERLING*      CLOUDY    36  28  75 SW3       30.00F
SAVANNA*       MOCLDY    32  31  94 S5        30.01F WCI  28
$$

ILZ003-004-008-010-011-017-018-070700-
NORTH CENTRAL ILLINOIS

CITY           SKY/WX    TMP DP  RH WIND       PRES   REMARKS
ROCKFORD       CLOUDY    33  30  88 S5        30.03F WCI  29
6HR MIN TEMP:  27; 6HR MAX TEMP:  35;

FREEPORT*      CLOUDY    33  30  88 S13       30.01F WCI  24
ROCHELLE*      CLOUDY    32  30  92 S8        30.03F WCI  25
DE KALB*       CLOUDY    33  30  90 S7        30.03F WCI  27
PERU*          PTCLDY   -11 -14  85 SW8       30.06F WCI -28
$$

ILZ005-006-012>014-019>023-070700-
NORTHEAST ILLINOIS

CITY           SKY/WX    TMP DP  RH WIND       PRES   REMARKS
CHICAGO-OHARE  PTCLDY    34  29  82 S7        30.04F WCI  28
6HR MIN TEMP:  30; 6HR MAX TEMP:  37;

CHICAGO-MIDWAY MOCLDY    35  28  75 S6        30.05F WCI  30
6HR MIN TEMP:  34; 6HR MAX TEMP:  39;

AURORA         PTCLDY    33  28  81 S6        30.05S WCI  28
6HR MIN TEMP:  31; 6HR MAX TEMP:  35;

LANSING*       PTCLDY    32  29  88 SW5       30.07F WCI  27
JOLIET*        MOCLDY    30  29  95 CALM      30.06F
WAUKEGAN       CLOUDY    32  29  88 SW7       30.02F WCI  26
6HR MIN TEMP:  29; 6HR MAX TEMP:  33;

DUPAGE AIRPORT MOCLDY    30  26  85 S6        30.03F WCI  24
6HR MIN TEMP:  28; 6HR MAX TEMP:  34;

KANKAKEE*      CLEAR     31  28  90 SW5       30.08F WCI  26
WHEELING       MOCLDY    32  28  85 S5        30.05F WCI  27
6HR MIN TEMP:  28; 6HR MAX TEMP:  38;

MORRIS*          N/A     32  29  89 CALM      30.03F
ROMEOVILLE*    PTCLDY    31  28  89 S6        30.05F WCI  25
NORTHERLY ISL    N/A     37  29  73 SW7         N/A  WCI  32
$$

LMZ740>746-070700-
SOUTHERN LAKE MICHIGAN

STATION/POSITION SKY/WX   TEMP    WIND        PRES    VSBY  WAVE
                          AIR SEA DIR/SP/G                  HT/PER
                          (F)     (DEG/KT/KT) (MB)    (MI)  (FT/S)
HARRISON CRIB              38     200/ 12/ 13   N/A
BURNHAM HARBOR             37     220/  7/  7   N/A
CALUMET HARBOR             35     180/  5/  9 1017.5F
BURNS HARBOR               35     180/ 10/ 12 1019.0F
MICHIGAN CITY              37     150/ 15/ 18   N/A
$$

ILZ025>027-034>036-040-047-049-050-058-095>099-070700-
WEST-CENTRAL ILLINOIS

CITY           SKY/WX    TMP DP  RH WIND       PRES   REMARKS
QUINCY         PTCLDY    35  27  72 SW9       30.09S WCI  28
GALESBURG*     PTCLDY    35  30  84 SW8       30.05S WCI  28
MACOMB*        PTCLDY    37  30  77 SW10      30.08F WCI  29
JACKSONVILLE*  CLEAR     39  30  70 SW6       30.11S WCI  35
PITTSFIELD*    PTCLDY    38  29  72 S6        30.12S WCI  33
$$

ILZ028>032-037-038-041>044-048-051>054-059>061-070700-
CENTRAL ILLINOIS

CITY           SKY/WX    TMP DP  RH WIND       PRES   REMARKS
PONTIAC        PTCLDY    35  32  88 S6        30.08F WCI  30
BLOOMINGTON    PTCLDY    31  30  96 SW8       30.09F WCI  24
DECATUR        CLEAR     34  27  75 SW7       30.11F WCI  28
PEORIA         CLEAR     31  25  78 S6        30.08F WCI  25
6HR MIN TEMP:  29; 6HR MAX TEMP:  40;

LACON*         PTCLDY    33  26  76 S3        30.06F
LINCOLN*       CLEAR     33  30  91 CALM      30.11S
SPRINGFIELD    CLEAR     36  28  73 SW3       30.12F
6HR MIN TEMP:  35; 6HR MAX TEMP:  45;

TAYLORVILLE    CLEAR     34  28  80 S8        30.13S WCI  27
$$

ILZ033-039-045-046-055>057-062-063-070700-
EAST-CENTRAL ILLINOIS

CITY           SKY/WX    TMP DP  RH WIND       PRES   REMARKS
CHAMPAIGN      CLEAR     32  28  85 S9        30.11F WCI  24
RANTOUL*       CLEAR     37  31  79 SW7       30.10F WCI  31
MATTOON        CLEAR     40  24  53 S10       30.13F
PARIS*         PTCLDY    37  28  68 S12       30.14F WCI  29
$$

ILZ079-100>102-070700-
SOUTHWEST ILLINOIS

CITY           SKY/WX    TMP DP  RH WIND       PRES   REMARKS
ALTON          CLEAR     36  28  71 S7        30.15F WCI  31
BELLEVILLE     CLEAR     38  22  52 S3        30.16F
CAHOKIA*       CLEAR     44  21  40 S6        30.16F
SPARTA*        CLEAR     40  21  46 S8        30.20F
$$

ILZ064>066-069>071-074>076-080>082-084>086-088>090-092>094-070700-
SOUTH-CENTRAL ILLINOIS

CITY           SKY/WX    TMP DP  RH WIND       PRES   REMARKS
CARBONDALE     CLEAR     40  22  48 SW10      30.22F
6HR MIN TEMP:  36; 6HR MAX TEMP:  44;

CAIRO*         CLEAR     37  27  65 CALM      30.25F
EFFINGHAM*     CLEAR     40  26  56 S9        30.17F
MARION         CLEAR     36  23  60 SW7       30.23F WCI  30
MT. VERNON     CLEAR     36  23  60 SW8       30.20F WCI  29
CENTRALIA*     CLEAR     41  25  53 SW12      30.17F
SALEM*         CLEAR     42  23  47 SW14      30.17F
METROPOLIS*    CLEAR     35  26  70 SW3       30.26F
$$

ILZ067-068-072-073-078-083-087-091-070700-
SOUTHEAST ILLINOIS

CITY           SKY/WX    TMP DP  RH WIND       PRES   REMARKS
LAWRENCEVILLE  CLEAR     36  26  67 S12       30.19F WCI  28
FLORA*         PTCLDY    38  26  62 SW8       30.19F WCI  32
FAIRFIELD*     CLEAR     35  27  70 S6        30.19F WCI  30
HARRISBURG*    CLEAR     38  25  60 SW6       30.23F WCI  33
ROBINSON*      PTCLDY    39  25  57 SW12      30.19S WCI  31
CARMI*         CLEAR     42  24  50 SW13      30.21F
$$

ABBREVIATIONS USED IN REMARKS
   TC - TEMPERATURE IN CELSIUS
  WCI - WIND CHILL INDEX
   HX - HEAT INDEX
  VSB - VISIBILITY
$$





USA.gov is the U.S. government's official web portal to all federal, state and local government web resources and services.